KNE267 OERK-HECA

Flight info

Callsign KNE267
Flight time 2h 41m
Altitude 34000
Route IVONU Z710 GAS G662 NIMAR L550 NOVPA N697 MENLI L677 CVO
Aircraft B738/M-SDFGHIJ1LORVWXY/LB1

Departure

Time 2026-04-30 09:18
Airport King Khalid International Airport (OERK)

Arrival

Time 2026-04-30 11:59
Airport Cairo International Airport (HECA)
Time Latitude Longitude Altitude Speed Heading
2026-04-30 08:30 24.96464 46.70176 2059 ft 0 kts 237°
2026-04-30 08:31 24.96463 46.70176 2059 ft 0 kts 238°
2026-04-30 09:09 24.96464 46.70177 2070 ft 2 kts 238°
2026-04-30 09:09 24.96473 46.70193 2049 ft 2 kts 238°
2026-04-30 09:09 24.96481 46.70208 2044 ft 2 kts 238°
2026-04-30 09:09 24.96490 46.70223 2042 ft 2 kts 238°
2026-04-30 09:10 24.96499 46.70239 2048 ft 2 kts 238°
2026-04-30 09:10 24.96507 46.70254 2042 ft 2 kts 238°
2026-04-30 09:10 24.96516 46.70269 2042 ft 2 kts 238°
2026-04-30 09:10 24.96524 46.70285 2042 ft 2 kts 238°
2026-04-30 09:11 24.96529 46.70292 2042 ft 0 kts 244°
2026-04-30 09:12 24.96528 46.70289 2042 ft 1 kts 252°
2026-04-30 09:13 24.96540 46.70270 2042 ft 6 kts 316°
2026-04-30 09:13 24.96594 46.70235 2042 ft 12 kts 330°
2026-04-30 09:13 24.96683 46.70179 2046 ft 17 kts 330°
2026-04-30 09:13 24.96801 46.70105 2042 ft 22 kts 330°
2026-04-30 09:14 24.96946 46.70013 2042 ft 26 kts 330°
2026-04-30 09:14 24.97101 46.69915 2042 ft 27 kts 330°
2026-04-30 09:14 24.97261 46.69813 2042 ft 26 kts 330°
2026-04-30 09:14 24.97373 46.69742 2045 ft 11 kts 332°
2026-04-30 09:15 24.97438 46.69766 2048 ft 11 kts 57°
2026-04-30 09:15 24.97476 46.69839 2042 ft 11 kts 60°
2026-04-30 09:15 24.97522 46.69928 2043 ft 16 kts 60°
2026-04-30 09:15 24.97583 46.70042 2043 ft 17 kts 59°
2026-04-30 09:16 24.97620 46.70143 2032 ft 13 kts 79°
2026-04-30 09:16 24.97612 46.70233 2033 ft 10 kts 113°
2026-04-30 09:16 24.97569 46.70278 2031 ft 1 kts 150°
2026-04-30 09:17 24.97562 46.70283 2034 ft 8 kts 150°
2026-04-30 09:17 24.97319 46.70436 2038 ft 75 kts 150°
2026-04-30 09:17 24.96669 46.70846 2033 ft 138 kts 150°
2026-04-30 09:17 24.95679 46.71473 2041 ft 189 kts 156°
2026-04-30 09:18 24.94496 46.72154 2735 ft 192 kts 151°
2026-04-30 09:18 24.93310 46.72887 3353 ft 202 kts 138°
2026-04-30 09:18 24.92227 46.74001 3560 ft 224 kts 133°
2026-04-30 09:18 24.91029 46.75220 3833 ft 241 kts 135°
2026-04-30 09:19 24.89753 46.76454 4330 ft 253 kts 136°
2026-04-30 09:19 24.88367 46.77763 4835 ft 267 kts 137°
2026-04-30 09:19 24.86880 46.78959 5768 ft 264 kts 150°
2026-04-30 09:19 24.85266 46.79901 6640 ft 262 kts 154°
2026-04-30 09:20 24.83623 46.80803 7380 ft 264 kts 155°
2026-04-30 09:20 24.81969 46.81721 8116 ft 270 kts 155°
2026-04-30 09:20 24.80281 46.82678 8793 ft 275 kts 155°
2026-04-30 09:20 24.78514 46.83528 9464 ft 280 kts 165°
2026-04-30 09:21 24.76606 46.84081 10082 ft 287 kts 169°
2026-04-30 09:21 24.74605 46.84582 10419 ft 306 kts 169°
2026-04-30 09:21 24.72453 46.85134 10585 ft 329 kts 169°
2026-04-30 09:21 24.70165 46.85751 10892 ft 345 kts 168°
2026-04-30 09:22 24.67810 46.86369 11411 ft 350 kts 174°
2026-04-30 09:22 24.65426 46.86306 12042 ft 347 kts 195°
2026-04-30 09:22 24.63227 46.85299 12825 ft 342 kts 214°
2026-04-30 09:22 24.61435 46.83596 13552 ft 342 kts 232°
2026-04-30 09:23 24.60160 46.81390 14208 ft 343 kts 240°
2026-04-30 09:23 24.59023 46.79071 14752 ft 348 kts 242°
2026-04-30 09:23 24.57889 46.76704 15285 ft 352 kts 242°
2026-04-30 09:23 24.56730 46.74325 15872 ft 355 kts 242°
2026-04-30 09:24 24.55543 46.71934 16399 ft 358 kts 241°
2026-04-30 09:24 24.54345 46.69516 16930 ft 362 kts 244°
2026-04-30 09:24 24.53625 46.66859 17426 ft 367 kts 263°
2026-04-30 09:24 24.53705 46.64048 18004 ft 372 kts 278°
2026-04-30 09:25 24.54508 46.61324 18449 ft 381 kts 294°
2026-04-30 09:25 24.55829 46.58784 18927 ft 384 kts 298°
2026-04-30 09:25 24.57232 46.56278 19435 ft 385 kts 298°
2026-04-30 09:25 24.58652 46.53776 19926 ft 387 kts 298°
2026-04-30 09:26 24.60076 46.51252 20383 ft 390 kts 298°
2026-04-30 09:26 24.61494 46.48707 20870 ft 391 kts 297°
2026-04-30 09:26 24.62910 46.46145 21357 ft 393 kts 297°
2026-04-30 09:26 24.64325 46.43569 21847 ft 394 kts 297°
2026-04-30 09:27 24.65744 46.40979 22319 ft 396 kts 297°
2026-04-30 09:27 24.67169 46.38372 22748 ft 399 kts 297°
2026-04-30 09:27 24.68603 46.35748 23166 ft 402 kts 297°
2026-04-30 09:27 24.70046 46.33107 23612 ft 404 kts 296°
2026-04-30 09:28 24.71494 46.30456 23982 ft 405 kts 296°
2026-04-30 09:28 24.72948 46.27793 24370 ft 406 kts 296°
2026-04-30 09:28 24.74404 46.25122 24728 ft 408 kts 296°
2026-04-30 09:28 24.75864 46.22441 25099 ft 409 kts 296°
2026-04-30 09:29 24.77329 46.19749 25441 ft 411 kts 296°
2026-04-30 09:29 24.78799 46.17047 25784 ft 412 kts 295°
2026-04-30 09:29 24.80252 46.14373 26140 ft 413 kts 295°
2026-04-30 09:29 24.81728 46.11658 26484 ft 414 kts 295°
2026-04-30 09:30 24.83207 46.08933 26781 ft 416 kts 295°
2026-04-30 09:30 24.84694 46.06192 27098 ft 417 kts 295°
2026-04-30 09:30 24.86182 46.03449 27410 ft 418 kts 295°
2026-04-30 09:30 24.87674 46.00696 27719 ft 419 kts 295°
2026-04-30 09:31 24.89171 45.97933 28003 ft 421 kts 295°
2026-04-30 09:31 24.90671 45.95162 28282 ft 422 kts 295°
2026-04-30 09:31 24.92177 45.92381 28599 ft 422 kts 294°
2026-04-30 09:31 24.93676 45.89611 29036 ft 419 kts 294°
2026-04-30 09:32 24.95164 45.86862 29527 ft 416 kts 294°
2026-04-30 09:32 24.96636 45.84140 29982 ft 413 kts 294°
2026-04-30 09:32 24.98104 45.81420 30318 ft 412 kts 294°
2026-04-30 09:32 24.99564 45.78711 30609 ft 411 kts 294°
2026-04-30 09:33 25.01024 45.76002 30907 ft 410 kts 293°
2026-04-30 09:33 25.02477 45.73304 31237 ft 409 kts 293°
2026-04-30 09:33 25.03927 45.70614 31549 ft 407 kts 293°
2026-04-30 09:33 25.05371 45.67932 31852 ft 406 kts 293°
2026-04-30 09:34 25.06716 45.65215 32156 ft 402 kts 290°
2026-04-30 09:34 25.07945 45.62463 32481 ft 399 kts 288°
2026-04-30 09:34 25.09128 45.59699 32773 ft 398 kts 288°
2026-04-30 09:34 25.10300 45.56936 33065 ft 397 kts 288°
2026-04-30 09:35 25.11472 45.54185 33383 ft 396 kts 288°
2026-04-30 09:35 25.12647 45.51448 33711 ft 394 kts 288°
2026-04-30 09:35 25.13826 45.48721 33995 ft 393 kts 288°
2026-04-30 09:35 25.15010 45.45987 33979 ft 396 kts 288°
2026-04-30 09:36 25.17391 45.40512 34002 ft 394 kts 288°
2026-04-30 09:36 25.19760 45.35075 34003 ft 392 kts 288°
2026-04-30 09:37 25.22111 45.29668 34001 ft 390 kts 288°
2026-04-30 09:37 25.24452 45.24275 34003 ft 389 kts 288°
2026-04-30 09:38 25.26785 45.18893 34001 ft 388 kts 288°
2026-04-30 09:38 25.29115 45.13513 34000 ft 388 kts 287°
2026-04-30 09:39 25.31444 45.08125 34003 ft 389 kts 288°
2026-04-30 09:39 25.33779 45.02717 34001 ft 391 kts 288°
2026-04-30 09:40 25.36105 44.97327 34000 ft 392 kts 288°
2026-04-30 09:40 25.38455 44.91874 33990 ft 393 kts 288°
2026-04-30 09:41 25.40807 44.86411 33997 ft 394 kts 287°
2026-04-30 09:41 25.43161 44.80933 33988 ft 395 kts 288°
2026-04-30 09:42 25.45516 44.75450 33998 ft 395 kts 287°
2026-04-30 09:42 25.47869 44.69962 33994 ft 395 kts 287°
2026-04-30 09:43 25.50220 44.64472 33993 ft 394 kts 288°
2026-04-30 09:43 25.52704 44.59059 33984 ft 400 kts 294°
2026-04-30 09:44 25.56280 44.54221 33993 ft 415 kts 307°
2026-04-30 09:44 25.60521 44.49879 33998 ft 415 kts 307°
2026-04-30 09:45 25.64770 44.45562 33985 ft 413 kts 307°
2026-04-30 09:45 25.68975 44.41253 33990 ft 411 kts 307°
2026-04-30 09:46 25.73153 44.36944 33991 ft 409 kts 307°
2026-04-30 09:46 25.77279 44.32678 33997 ft 408 kts 307°
2026-04-30 09:47 25.81445 44.28366 33989 ft 407 kts 307°
2026-04-30 09:47 25.85583 44.24079 33992 ft 407 kts 307°
2026-04-30 09:48 25.89691 44.19818 33989 ft 406 kts 307°
2026-04-30 09:48 25.93821 44.15531 33991 ft 406 kts 307°
2026-04-30 09:49 25.97948 44.11244 33993 ft 406 kts 307°
2026-04-30 09:49 26.02074 44.06953 33991 ft 406 kts 307°
2026-04-30 09:50 26.05529 44.03356 33992 ft 406 kts 307°
2026-04-30 09:50 26.09657 43.99055 34008 ft 407 kts 307°
2026-04-30 09:51 26.13786 43.94747 34008 ft 407 kts 307°
2026-04-30 09:51 26.17920 43.90431 34014 ft 408 kts 307°
2026-04-30 09:52 26.22056 43.86108 34021 ft 408 kts 307°
2026-04-30 09:52 26.26163 43.81812 34024 ft 407 kts 307°
2026-04-30 09:53 26.30095 43.77348 34014 ft 397 kts 298°
2026-04-30 09:53 26.33010 43.72259 34022 ft 388 kts 292°
2026-04-30 09:54 26.35797 43.67113 34022 ft 388 kts 293°
2026-04-30 09:54 26.38597 43.61974 34015 ft 388 kts 293°
2026-04-30 09:55 26.41402 43.56842 34009 ft 387 kts 293°
2026-04-30 09:55 26.44206 43.51711 34007 ft 387 kts 293°
2026-04-30 09:56 26.47011 43.46573 34003 ft 387 kts 293°
2026-04-30 09:56 26.49813 43.41436 34003 ft 387 kts 293°
2026-04-30 09:57 26.52613 43.36295 34003 ft 387 kts 293°
2026-04-30 09:57 26.55411 43.31151 34006 ft 387 kts 293°
2026-04-30 09:58 26.58207 43.26005 34009 ft 388 kts 293°
2026-04-30 09:58 26.61003 43.20854 34012 ft 388 kts 293°
2026-04-30 09:59 26.66595 43.10545 34011 ft 388 kts 293°
2026-04-30 10:00 26.70778 43.02839 34018 ft 388 kts 293°
2026-04-30 10:01 26.74978 42.95088 34017 ft 389 kts 293°
2026-04-30 10:02 26.79174 42.87328 34021 ft 388 kts 293°
2026-04-30 10:02 26.81967 42.82155 34023 ft 388 kts 293°
2026-04-30 10:03 26.84751 42.76979 34026 ft 388 kts 293°
2026-04-30 10:03 26.87537 42.71812 34032 ft 388 kts 293°
2026-04-30 10:04 26.90322 42.66641 34037 ft 388 kts 293°
2026-04-30 10:04 26.93106 42.61462 34042 ft 388 kts 293°
2026-04-30 10:05 26.95885 42.56285 34038 ft 388 kts 293°
2026-04-30 10:05 26.98667 42.51096 34037 ft 388 kts 293°
2026-04-30 10:06 27.01443 42.45910 34039 ft 388 kts 293°
2026-04-30 10:06 27.04219 42.40720 34040 ft 388 kts 293°
2026-04-30 10:07 27.06994 42.35525 34047 ft 388 kts 293°
2026-04-30 10:07 27.09768 42.30324 34041 ft 388 kts 293°
2026-04-30 10:08 27.12535 42.25117 34045 ft 388 kts 293°
2026-04-30 10:08 27.15298 42.19909 34051 ft 388 kts 293°
2026-04-30 10:09 27.18056 42.14704 34053 ft 388 kts 293°
2026-04-30 10:09 27.20812 42.09497 34044 ft 388 kts 293°
2026-04-30 10:10 27.23566 42.04287 34050 ft 387 kts 293°
2026-04-30 10:10 27.26313 41.99085 34054 ft 387 kts 293°
2026-04-30 10:11 27.29059 41.93880 34063 ft 387 kts 293°
2026-04-30 10:11 27.31785 41.88704 34068 ft 387 kts 293°
2026-04-30 10:12 27.34527 41.83493 34072 ft 387 kts 293°
2026-04-30 10:12 27.37268 41.78277 34072 ft 387 kts 293°
2026-04-30 10:13 27.40006 41.73060 34075 ft 387 kts 293°
2026-04-30 10:13 27.42988 41.67971 34075 ft 396 kts 301°
2026-04-30 10:14 27.46988 41.63571 34085 ft 405 kts 308°
2026-04-30 10:14 27.53232 41.57195 34067 ft 403 kts 308°
2026-04-30 10:15 27.57364 41.52932 34077 ft 403 kts 308°
2026-04-30 10:15 27.61495 41.48653 34058 ft 403 kts 308°
2026-04-30 10:16 27.65621 41.44373 34061 ft 403 kts 308°
2026-04-30 10:17 27.71813 41.37935 34064 ft 404 kts 308°
2026-04-30 10:17 27.78012 41.31483 34066 ft 404 kts 308°
2026-04-30 10:18 27.82148 41.27172 34064 ft 405 kts 308°
2026-04-30 10:19 27.88351 41.20698 34063 ft 405 kts 308°
2026-04-30 10:19 27.92487 41.16377 34063 ft 405 kts 308°
2026-04-30 10:20 27.96624 41.12058 34064 ft 404 kts 308°
2026-04-30 10:20 28.02821 41.05582 34060 ft 404 kts 308°
2026-04-30 10:21 28.06943 41.01267 34072 ft 403 kts 308°
2026-04-30 10:21 28.11032 40.96981 34068 ft 403 kts 308°
2026-04-30 10:22 28.15142 40.92668 34074 ft 403 kts 308°
2026-04-30 10:22 28.19249 40.88354 34071 ft 402 kts 308°
2026-04-30 10:23 28.23355 40.84036 34077 ft 402 kts 308°
2026-04-30 10:23 28.27459 40.79715 34073 ft 402 kts 308°
2026-04-30 10:24 28.31562 40.75391 34077 ft 403 kts 308°
2026-04-30 10:24 28.35664 40.71062 34071 ft 403 kts 308°
2026-04-30 10:25 28.39771 40.66724 34077 ft 403 kts 308°
2026-04-30 10:25 28.43883 40.62375 34078 ft 404 kts 308°
2026-04-30 10:26 28.47996 40.58021 34077 ft 404 kts 308°
2026-04-30 10:26 28.52117 40.53653 34077 ft 405 kts 308°
2026-04-30 10:27 28.56240 40.49279 34078 ft 405 kts 308°
2026-04-30 10:27 28.60335 40.44929 34080 ft 406 kts 308°
2026-04-30 10:28 28.64460 40.40542 34087 ft 406 kts 308°
2026-04-30 10:28 28.68592 40.36143 34081 ft 407 kts 308°
2026-04-30 10:29 28.72725 40.31739 34079 ft 407 kts 309°
2026-04-30 10:29 28.76855 40.27332 34082 ft 407 kts 309°
2026-04-30 10:30 28.80986 40.22920 34078 ft 407 kts 309°
2026-04-30 10:30 28.85112 40.18507 34080 ft 407 kts 309°
2026-04-30 10:31 28.89237 40.14090 34075 ft 406 kts 309°
2026-04-30 10:31 28.93357 40.09674 34081 ft 406 kts 309°
2026-04-30 10:32 28.97475 40.05254 34072 ft 406 kts 309°
2026-04-30 10:32 29.01588 40.00834 34074 ft 406 kts 309°
2026-04-30 10:33 29.05698 39.96414 34072 ft 405 kts 309°
2026-04-30 10:33 29.09400 39.91695 34069 ft 389 kts 292°
2026-04-30 10:34 29.11058 39.85944 34061 ft 377 kts 271°
2026-04-30 10:34 29.11114 39.80007 34066 ft 377 kts 268°
2026-04-30 10:35 29.11092 39.74005 34064 ft 378 kts 268°
2026-04-30 10:35 29.11090 39.67983 34065 ft 380 kts 268°
2026-04-30 10:36 29.11100 39.61933 34061 ft 381 kts 268°
2026-04-30 10:36 29.11113 39.55861 34065 ft 383 kts 268°
2026-04-30 10:37 29.11125 39.49770 34058 ft 383 kts 268°
2026-04-30 10:37 29.11134 39.43670 34064 ft 384 kts 268°
2026-04-30 10:38 29.11139 39.38601 34052 ft 384 kts 268°
2026-04-30 10:38 29.11142 39.32498 34053 ft 384 kts 268°
2026-04-30 10:39 29.11143 39.26404 34051 ft 383 kts 268°
2026-04-30 10:39 29.11141 39.20329 34047 ft 382 kts 268°
2026-04-30 10:40 29.11137 39.14270 34048 ft 381 kts 269°
2026-04-30 10:40 29.11130 39.08221 34045 ft 380 kts 268°
2026-04-30 10:41 29.11120 39.02189 34042 ft 379 kts 269°
2026-04-30 10:41 29.11108 38.96166 34042 ft 379 kts 269°
2026-04-30 10:42 29.11091 38.90144 34039 ft 378 kts 269°
2026-04-30 10:42 29.11067 38.84125 34041 ft 379 kts 269°
2026-04-30 10:43 29.11040 38.78106 34035 ft 379 kts 269°
2026-04-30 10:43 29.11012 38.72082 34039 ft 379 kts 269°
2026-04-30 10:44 29.10981 38.66095 34037 ft 379 kts 269°
2026-04-30 10:44 29.10947 38.60023 34038 ft 380 kts 269°
2026-04-30 10:45 29.10911 38.54027 34035 ft 380 kts 269°
2026-04-30 10:45 29.10872 38.47986 34031 ft 380 kts 269°
2026-04-30 10:46 29.10831 38.41942 34033 ft 380 kts 269°
2026-04-30 10:46 29.10786 38.35895 34031 ft 380 kts 269°
2026-04-30 10:47 29.10733 38.29846 34027 ft 380 kts 269°
2026-04-30 10:47 29.10676 38.23801 34032 ft 380 kts 269°
2026-04-30 10:48 29.10618 38.17754 34025 ft 380 kts 269°
2026-04-30 10:48 29.10557 38.11707 34026 ft 380 kts 269°
2026-04-30 10:49 29.10494 38.05662 34029 ft 380 kts 269°
2026-04-30 10:49 29.10429 37.99623 34025 ft 380 kts 269°
2026-04-30 10:50 29.10360 37.93587 34019 ft 380 kts 269°
2026-04-30 10:50 29.10289 37.87554 34026 ft 379 kts 269°
2026-04-30 10:51 29.10215 37.81520 34017 ft 379 kts 269°
2026-04-30 10:51 29.10139 37.75492 34022 ft 379 kts 269°
2026-04-30 10:52 29.10060 37.69467 34017 ft 379 kts 269°
2026-04-30 10:52 29.09978 37.63442 34027 ft 379 kts 269°
2026-04-30 10:53 29.09895 37.57461 34026 ft 379 kts 269°
2026-04-30 10:53 29.09808 37.51440 34029 ft 379 kts 269°
2026-04-30 10:54 29.09751 37.45416 34020 ft 379 kts 269°
2026-04-30 10:54 29.09718 37.39394 34025 ft 379 kts 269°
2026-04-30 10:55 29.09681 37.33373 34020 ft 379 kts 269°
2026-04-30 10:55 29.09638 37.27357 34022 ft 378 kts 269°
2026-04-30 10:56 29.09591 37.21346 34018 ft 378 kts 269°
2026-04-30 10:56 29.09541 37.15336 34029 ft 378 kts 269°
2026-04-30 10:57 29.09489 37.09335 34012 ft 378 kts 269°
2026-04-30 10:57 29.09433 37.03334 34012 ft 377 kts 269°
2026-04-30 10:58 29.09375 36.97332 34012 ft 377 kts 269°
2026-04-30 10:58 29.09315 36.91335 34009 ft 377 kts 269°
2026-04-30 10:59 29.09251 36.85340 34012 ft 377 kts 269°
2026-04-30 10:59 29.09185 36.79349 34003 ft 377 kts 269°
2026-04-30 11:00 29.09116 36.73367 34007 ft 376 kts 269°
2026-04-30 11:00 29.09046 36.67381 33985 ft 376 kts 269°
2026-04-30 11:01 29.08973 36.61439 33982 ft 376 kts 269°
2026-04-30 11:01 29.08897 36.55464 33982 ft 376 kts 269°
2026-04-30 11:02 29.08819 36.49488 33988 ft 376 kts 269°
2026-04-30 11:02 29.08699 36.43509 33969 ft 376 kts 269°
2026-04-30 11:03 29.08523 36.37548 33983 ft 375 kts 269°
2026-04-30 11:04 29.08270 36.28622 33977 ft 374 kts 269°
2026-04-30 11:04 29.08103 36.22668 33972 ft 375 kts 269°
2026-04-30 11:05 29.07934 36.16717 33970 ft 375 kts 269°
2026-04-30 11:05 29.07762 36.10758 33980 ft 375 kts 269°
2026-04-30 11:06 29.07587 36.04795 33966 ft 376 kts 269°
2026-04-30 11:06 29.07409 35.98824 33973 ft 376 kts 269°
2026-04-30 11:07 29.07228 35.92843 33967 ft 377 kts 269°
2026-04-30 11:07 29.07044 35.86858 33971 ft 377 kts 269°
2026-04-30 11:08 29.06858 35.80862 33980 ft 377 kts 269°
2026-04-30 11:08 29.06668 35.74865 33977 ft 378 kts 269°
2026-04-30 11:09 29.06476 35.68862 33972 ft 378 kts 269°
2026-04-30 11:09 29.06282 35.62892 33978 ft 378 kts 269°
2026-04-30 11:10 29.06084 35.56884 33981 ft 378 kts 269°
2026-04-30 11:10 29.05884 35.50869 33977 ft 379 kts 269°
2026-04-30 11:11 29.05680 35.44848 33976 ft 379 kts 269°
2026-04-30 11:11 29.05473 35.38823 33976 ft 379 kts 269°
2026-04-30 11:12 29.05265 35.32800 33975 ft 379 kts 269°
2026-04-30 11:12 29.05052 35.26758 33955 ft 381 kts 268°
2026-04-30 11:13 29.04837 35.20711 33960 ft 380 kts 269°
2026-04-30 11:13 29.04620 35.14687 33952 ft 378 kts 269°
2026-04-30 11:14 29.04401 35.08693 33948 ft 377 kts 269°
2026-04-30 11:14 29.04180 35.02719 33940 ft 376 kts 269°
2026-04-30 11:15 29.03958 34.96765 33963 ft 374 kts 268°
2026-04-30 11:15 29.03724 34.90812 33957 ft 376 kts 269°
2026-04-30 11:16 29.03503 34.84821 33938 ft 378 kts 269°
2026-04-30 11:16 29.03357 34.78817 33939 ft 378 kts 270°
2026-04-30 11:17 29.03254 34.72854 33947 ft 378 kts 270°
2026-04-30 11:17 29.03502 34.66869 33944 ft 377 kts 279°
2026-04-30 11:18 29.04915 34.61097 33952 ft 378 kts 287°
2026-04-30 11:18 29.07483 34.52555 33927 ft 380 kts 287°
2026-04-30 11:19 29.09161 34.46837 33953 ft 380 kts 287°
2026-04-30 11:19 29.10832 34.41109 33969 ft 380 kts 287°
2026-04-30 11:20 29.12500 34.35392 33974 ft 379 kts 287°
2026-04-30 11:20 29.14166 34.29680 33976 ft 378 kts 287°
2026-04-30 11:21 29.15828 34.23972 33984 ft 378 kts 287°
2026-04-30 11:21 29.17486 34.18267 33990 ft 378 kts 287°
2026-04-30 11:22 29.19139 34.12567 33993 ft 377 kts 287°
2026-04-30 11:22 29.20790 34.06864 33995 ft 377 kts 287°
2026-04-30 11:23 29.22437 34.01168 33995 ft 377 kts 287°
2026-04-30 11:24 29.24903 33.92621 33997 ft 377 kts 287°
2026-04-30 11:24 29.26536 33.86952 33998 ft 377 kts 287°
2026-04-30 11:25 29.29000 33.78383 33997 ft 378 kts 287°
2026-04-30 11:26 29.32282 33.66931 33967 ft 378 kts 287°
2026-04-30 11:26 29.33915 33.61220 33989 ft 377 kts 287°
2026-04-30 11:27 29.35545 33.55504 33998 ft 377 kts 287°
2026-04-30 11:27 29.37171 33.49794 34001 ft 377 kts 287°
2026-04-30 11:28 29.39330 33.42198 34002 ft 376 kts 287°
2026-04-30 11:29 29.40946 33.36498 34000 ft 376 kts 287°
2026-04-30 11:29 29.43356 33.27983 33984 ft 366 kts 287°
2026-04-30 11:30 29.44892 33.22544 33985 ft 355 kts 287°
2026-04-30 11:30 29.45651 33.19851 33995 ft 355 kts 287°
2026-04-30 11:30 29.46414 33.17143 33710 ft 357 kts 287°
2026-04-30 11:31 29.47169 33.14460 33392 ft 352 kts 287°
2026-04-30 11:31 29.47915 33.11806 33072 ft 346 kts 287°
2026-04-30 11:31 29.48652 33.09182 32666 ft 344 kts 287°
2026-04-30 11:31 29.49383 33.06579 32290 ft 341 kts 287°
2026-04-30 11:32 29.50108 33.03993 31918 ft 339 kts 287°
2026-04-30 11:32 29.50827 33.01425 31551 ft 337 kts 287°
2026-04-30 11:32 29.51540 32.98879 31185 ft 335 kts 287°
2026-04-30 11:33 29.52955 32.93820 30464 ft 331 kts 287°
2026-04-30 11:33 29.53656 32.91309 30107 ft 330 kts 287°
2026-04-30 11:33 29.54353 32.88811 29695 ft 328 kts 287°
2026-04-30 11:33 29.55046 32.86326 29295 ft 325 kts 287°
2026-04-30 11:34 29.55733 32.83861 28905 ft 323 kts 287°
2026-04-30 11:34 29.56414 32.81415 28537 ft 320 kts 287°
2026-04-30 11:34 29.57088 32.78991 28171 ft 317 kts 287°
2026-04-30 11:34 29.57757 32.76586 27807 ft 315 kts 287°
2026-04-30 11:35 29.58420 32.74201 27454 ft 312 kts 287°
2026-04-30 11:35 29.59077 32.71833 27097 ft 310 kts 287°
2026-04-30 11:35 29.59730 32.69479 26754 ft 308 kts 287°
2026-04-30 11:35 29.60344 32.67133 26403 ft 306 kts 285°
2026-04-30 11:36 29.60892 32.64776 26053 ft 304 kts 285°
2026-04-30 11:36 29.61418 32.62427 25711 ft 302 kts 285°
2026-04-30 11:36 29.61936 32.60094 25370 ft 301 kts 285°
2026-04-30 11:36 29.62454 32.57771 25029 ft 299 kts 285°
2026-04-30 11:37 29.62971 32.55461 24690 ft 298 kts 285°
2026-04-30 11:37 29.63488 32.53159 24357 ft 297 kts 285°
2026-04-30 11:37 29.64004 32.50865 24016 ft 296 kts 285°
2026-04-30 11:37 29.64518 32.48579 23672 ft 295 kts 285°
2026-04-30 11:38 29.65033 32.46295 23286 ft 295 kts 285°
2026-04-30 11:38 29.65545 32.44020 22909 ft 293 kts 285°
2026-04-30 11:38 29.66054 32.41757 22563 ft 291 kts 285°
2026-04-30 11:38 29.66560 32.39511 22217 ft 289 kts 285°
2026-04-30 11:39 29.67061 32.37280 21886 ft 288 kts 285°
2026-04-30 11:39 29.67560 32.35060 21559 ft 286 kts 285°
2026-04-30 11:39 29.68056 32.32851 21231 ft 285 kts 285°
2026-04-30 11:39 29.68548 32.30656 20908 ft 283 kts 285°
2026-04-30 11:40 29.69039 32.28465 20588 ft 283 kts 285°
2026-04-30 11:40 29.69532 32.26266 20263 ft 285 kts 285°
2026-04-30 11:40 29.70029 32.24047 19950 ft 289 kts 285°
2026-04-30 11:40 29.70538 32.21773 19620 ft 298 kts 285°
2026-04-30 11:41 29.71049 32.19486 19265 ft 300 kts 285°
2026-04-30 11:41 29.71566 32.17166 18926 ft 299 kts 286°
2026-04-30 11:41 29.72082 32.14852 18584 ft 299 kts 285°
2026-04-30 11:41 29.72597 32.12540 18223 ft 298 kts 286°
2026-04-30 11:42 29.73111 32.10232 17845 ft 297 kts 286°
2026-04-30 11:42 29.73621 32.07935 17484 ft 296 kts 285°
2026-04-30 11:42 29.74130 32.05647 17153 ft 294 kts 285°
2026-04-30 11:42 29.74634 32.03375 16821 ft 293 kts 285°
2026-04-30 11:43 29.75136 32.01110 16477 ft 292 kts 285°
2026-04-30 11:43 29.75636 31.98855 16154 ft 290 kts 285°
2026-04-30 11:43 29.76134 31.96606 15828 ft 289 kts 285°
2026-04-30 11:43 29.76630 31.94366 15501 ft 289 kts 285°
2026-04-30 11:44 29.77124 31.92132 15182 ft 288 kts 285°
2026-04-30 11:44 29.77616 31.89904 14855 ft 287 kts 285°
2026-04-30 11:44 29.78122 31.87690 14539 ft 285 kts 289°
2026-04-30 11:44 29.78984 31.85644 14177 ft 285 kts 303°
2026-04-30 11:45 29.80143 31.83800 13874 ft 285 kts 306°
2026-04-30 11:45 29.81341 31.81983 13508 ft 284 kts 307°
2026-04-30 11:45 29.82533 31.80176 13173 ft 283 kts 306°
2026-04-30 11:45 29.83713 31.78375 12850 ft 281 kts 306°
2026-04-30 11:46 29.84881 31.76578 12527 ft 280 kts 306°
2026-04-30 11:46 29.86040 31.74789 12213 ft 278 kts 306°
2026-04-30 11:46 29.87189 31.73008 11912 ft 276 kts 306°
2026-04-30 11:46 29.88333 31.71232 11606 ft 275 kts 306°
2026-04-30 11:47 29.89468 31.69466 11301 ft 274 kts 306°
2026-04-30 11:47 29.90601 31.67703 11000 ft 273 kts 306°
2026-04-30 11:47 29.91715 31.65970 10696 ft 272 kts 306°
2026-04-30 11:47 29.92860 31.64195 10384 ft 272 kts 306°
2026-04-30 11:48 29.93966 31.62483 10198 ft 267 kts 306°
2026-04-30 11:48 29.95074 31.60766 10028 ft 261 kts 306°
2026-04-30 11:48 29.96143 31.59109 9694 ft 261 kts 306°
2026-04-30 11:48 29.97222 31.57435 9395 ft 259 kts 306°
2026-04-30 11:49 29.98297 31.55766 9114 ft 258 kts 306°
2026-04-30 11:49 29.99367 31.54106 8827 ft 258 kts 306°
2026-04-30 11:49 30.00432 31.52450 8540 ft 257 kts 306°
2026-04-30 11:49 30.01494 31.50800 8261 ft 256 kts 306°
2026-04-30 11:50 30.02551 31.49155 7979 ft 255 kts 306°
2026-04-30 11:50 30.03607 31.47514 7703 ft 254 kts 307°
2026-04-30 11:50 30.04657 31.45879 7425 ft 254 kts 307°
2026-04-30 11:50 30.05707 31.44245 7144 ft 253 kts 306°
2026-04-30 11:51 30.06753 31.42616 6865 ft 252 kts 307°
2026-04-30 11:51 30.07794 31.40987 6591 ft 252 kts 304°
2026-04-30 11:51 30.08430 31.39113 6294 ft 254 kts 277°
2026-04-30 11:51 30.08285 31.37090 6017 ft 256 kts 255°
2026-04-30 11:52 30.07527 31.35228 5757 ft 257 kts 243°
2026-04-30 11:52 30.06639 31.33434 5475 ft 257 kts 242°
2026-04-30 11:52 30.05746 31.31645 5204 ft 257 kts 242°
2026-04-30 11:52 30.04866 31.29861 5029 ft 253 kts 243°
2026-04-30 11:53 30.04011 31.28115 4915 ft 247 kts 243°
2026-04-30 11:53 30.03179 31.26413 4801 ft 242 kts 243°
2026-04-30 11:53 30.02363 31.24736 4705 ft 237 kts 243°
2026-04-30 11:53 30.01516 31.23140 4574 ft 233 kts 229°
2026-04-30 11:54 30.00122 31.22288 4441 ft 232 kts 186°
2026-04-30 11:54 29.98573 31.22711 4224 ft 235 kts 142°
2026-04-30 11:54 29.97647 31.24204 4016 ft 229 kts 100°
2026-04-30 11:54 29.97786 31.25908 3892 ft 208 kts 59°
2026-04-30 11:55 29.98673 31.27147 3672 ft 198 kts 44°
2026-04-30 11:55 29.99587 31.28330 3433 ft 197 kts 46°
2026-04-30 11:55 30.00478 31.29523 3186 ft 195 kts 47°
2026-04-30 11:55 30.01363 31.30710 2929 ft 194 kts 46°
2026-04-30 11:56 30.02227 31.31867 2655 ft 186 kts 46°
2026-04-30 11:56 30.03043 31.32961 2396 ft 180 kts 46°
2026-04-30 11:56 30.03830 31.34018 2194 ft 170 kts 47°
2026-04-30 11:56 30.04588 31.35033 1980 ft 166 kts 45°
2026-04-30 11:57 30.05321 31.36016 1746 ft 157 kts 46°
2026-04-30 11:57 30.06019 31.36953 1590 ft 155 kts 45°
2026-04-30 11:57 30.06728 31.37903 1348 ft 153 kts 45°
2026-04-30 11:57 30.07422 31.38830 1143 ft 153 kts 47°
2026-04-30 11:58 30.08111 31.39756 944 ft 153 kts 45°
2026-04-30 11:58 30.08799 31.40672 773 ft 152 kts 45°
2026-04-30 11:58 30.09481 31.41600 550 ft 148 kts 47°
2026-04-30 11:58 30.10129 31.42457 375 ft 134 kts 47°
2026-04-30 11:59 30.10605 31.43092 373 ft 72 kts 49°
2026-04-30 11:59 30.10807 31.43361 373 ft 31 kts 48°
2026-04-30 11:59 30.10972 31.43503 373 ft 29 kts 30°
2026-04-30 11:59 30.11130 31.43587 373 ft 21 kts 23°
2026-04-30 12:00 30.11193 31.43583 373 ft 4 kts 275°
2026-04-30 12:00 30.11178 31.43550 373 ft 5 kts 239°
2026-04-30 12:00 30.11177 31.43492 373 ft 12 kts 303°
2026-04-30 12:00 30.11262 31.43407 373 ft 19 kts 320°
2026-04-30 12:01 30.11361 31.43309 373 ft 18 kts 319°
2026-04-30 12:01 30.11455 31.43214 373 ft 18 kts 319°
2026-04-30 12:01 30.11548 31.43122 373 ft 17 kts 320°
2026-04-30 12:01 30.11638 31.43035 373 ft 17 kts 320°
2026-04-30 12:02 30.11724 31.42950 373 ft 16 kts 319°
2026-04-30 12:02 30.11805 31.42869 373 ft 15 kts 319°
2026-04-30 12:02 30.11884 31.42790 374 ft 15 kts 318°
2026-04-30 12:02 30.11950 31.42723 374 ft 7 kts 320°
2026-04-30 12:03 30.11970 31.42704 374 ft 0 kts 319°
2026-04-30 12:03 30.11974 31.42700 374 ft 3 kts 319°
2026-04-30 12:03 30.12013 31.42661 374 ft 12 kts 319°
2026-04-30 12:04 30.12093 31.42580 374 ft 16 kts 319°
2026-04-30 12:04 30.12175 31.42498 374 ft 14 kts 318°
2026-04-30 12:04 30.12201 31.42415 374 ft 11 kts 261°
2026-04-30 12:04 30.12155 31.42340 374 ft 13 kts 229°
2026-04-30 12:05 30.12079 31.42238 374 ft 21 kts 230°
2026-04-30 12:05 30.11972 31.42088 374 ft 28 kts 230°
2026-04-30 12:05 30.11837 31.41917 374 ft 29 kts 230°
2026-04-30 12:05 30.11712 31.41747 374 ft 27 kts 230°
2026-04-30 12:06 30.11596 31.41588 374 ft 25 kts 230°
2026-04-30 12:06 30.11484 31.41441 374 ft 23 kts 229°
2026-04-30 12:06 30.11379 31.41304 374 ft 22 kts 228°
2026-04-30 12:06 30.11277 31.41171 374 ft 22 kts 231°
2026-04-30 12:07 30.11178 31.41034 374 ft 24 kts 229°
2026-04-30 12:07 30.11058 31.40873 374 ft 28 kts 230°
2026-04-30 12:07 30.10929 31.40705 373 ft 27 kts 229°
2026-04-30 12:07 30.10810 31.40547 373 ft 25 kts 229°
2026-04-30 12:08 30.10703 31.40404 373 ft 17 kts 229°
2026-04-30 12:08 30.10692 31.40315 373 ft 11 kts 313°
2026-04-30 12:08 30.10697 31.40237 373 ft 10 kts 238°
2026-04-30 12:08 30.10647 31.40170 373 ft 13 kts 229°
2026-04-30 12:09 30.10567 31.40064 373 ft 21 kts 229°
2026-04-30 12:09 30.10490 31.39962 373 ft 10 kts 236°
2026-04-30 12:09 30.10498 31.39884 373 ft 10 kts 296°
2026-04-30 12:09 30.10557 31.39847 373 ft 10 kts 346°
2026-04-30 12:10 30.10623 31.39827 373 ft 10 kts 345°
2026-04-30 12:10 30.10656 31.39768 373 ft 9 kts 269°
2026-04-30 12:10 30.10640 31.39685 373 ft 13 kts 256°
2026-04-30 12:10 30.10613 31.39562 373 ft 17 kts 254°
2026-04-30 12:11 30.10629 31.39479 373 ft 11 kts 331°
2026-04-30 12:11 30.10699 31.39457 373 ft 10 kts 345°
2026-04-30 12:11 30.10767 31.39436 373 ft 10 kts 345°
2026-04-30 12:11 30.10834 31.39416 373 ft 10 kts 345°
2026-04-30 12:12 30.10891 31.39415 373 ft 7 kts 46°
2026-04-30 12:12 30.10905 31.39471 373 ft 7 kts 74°
2026-04-30 12:12 30.10911 31.39495 373 ft 0 kts 74°